This is the latest recevied weather packets stored in our database for station/object N7WSS. If no packets are shown the sender has not sent any weather packets the latest 10 day(s).
| Time | Temp. | Humidity | Pressure | Rain* | Wind** | Luminosity | Snow |
|---|---|---|---|---|---|---|---|
| 1787917991 | 26.67° C | 46% | 1014.8 hPa | 0 mm | - | - | - |
| 1787917692 | 26.67° C | 46% | 1014.9 hPa | 0 mm | - | - | - |
| 1787917388 | 26.67° C | 45% | 1014.5 hPa | 0 mm | - | - | - |
| 1787917083 | 26.67° C | 45% | 1014.8 hPa | 0 mm | - | - | - |
| 1787916778 | 26.67° C | 46% | 1014.5 hPa | 0 mm | - | - | - |
| 1787916477 | 26.67° C | 47% | 1014.5 hPa | 0 mm | - | - | - |
| 1787916173 | 27.22° C | 46% | 1014.8 hPa | 0 mm | - | - | - |
| 1787915868 | 27.22° C | 46% | 1014.5 hPa | 0 mm | - | - | - |
| 1787915564 | 27.22° C | 45% | 1014.8 hPa | 0 mm | - | - | - |
| 1787915262 | 27.22° C | 45% | 1014.7 hPa | 0 mm | - | - | - |
| 1787914957 | 27.78° C | 44% | 1014.5 hPa | 0 mm | - | - | - |
| 1787914656 | 27.78° C | 44% | 1014.9 hPa | 0 mm | - | - | - |
| 1787914352 | 27.78° C | 43% | 1014.9 hPa | 0 mm | - | - | - |
| 1787914052 | 28.33° C | 42% | 1014.9 hPa | 0 mm | - | - | - |
| 1787913750 | 28.89° C | 41% | 1014.7 hPa | 0 mm | - | - | - |
| 1787913446 | 28.89° C | 40% | 1014.9 hPa | 0 mm | - | - | - |
| 1787913146 | 28.89° C | 41% | 1014.9 hPa | 0 mm | - | - | - |
| 1787912844 | 29.44° C | 39% | 1014.9 hPa | 0 mm | - | - | - |
| 1787912539 | 28.89° C | 40% | 1014.8 hPa | 0 mm | - | - | - |
| 1787912238 | 28.33° C | 40% | 1014.7 hPa | 0 mm | - | - | - |
| 1787911933 | 27.78° C | 41% | 1014.8 hPa | 0 mm | - | - | - |
| 1787911629 | 27.78° C | 41% | 1015.1 hPa | 0 mm | - | - | - |
| 1787911328 | 28.33° C | 40% | 1015.1 hPa | 0 mm | - | - | - |
| 1787911024 | 28.33° C | 40% | 1015 hPa | 0 mm | - | - | - |
| 1787910720 | 28.89° C | 39% | 1015.1 hPa | 0 mm | - | - | - |
* Rain latest hour (hover to see other rain measurements)
** Current wind speed in m/s (hover to see current wind gust speed)